"Period start","avg(HW err(1)/warn(2) (#))","avg(Visibility (m))","avg(Weather code (#))","avg(Precip intensity (mm/h))","min(HW err(1)/warn(2) (#))","max(HW err(1)/warn(2) (#))","std(HW err(1)/warn(2) (#))","med(HW err(1)/warn(2) (#))","min(Visibility (m))","max(Visibility (m))","std(Visibility (m))","med(Visibility (m))","min(Weather code (#))","max(Weather code (#))","std(Weather code (#))","med(Weather code (#))","min(Precip intensity (mm/h))","max(Precip intensity (mm/h))","std(Precip intensity (mm/h))","med(Precip intensity (mm/h))"
2016-06-10 00:00:00,2,37635,0,0.00,2,2,0,2,27841,45582,5374,39124,0,0,0,0,0.00,0.00,0.00,0.00
2016-06-10 00:10:00,2,37512,0,0.00,2,2,0,2,25003,47536,7345,36178,0,0,0,0,0.00,0.00,0.00,0.00
2016-06-10 00:20:00,2,42956,0,0.00,2,2,0,2,31111,50000,6926,42501,0,0,0,0,0.00,0.00,0.00,0.00
2016-06-10 00:30:00,2,35799,0,0.00,2,2,0,2,23666,50000,9284,33102,0,0,0,0,0.00,0.00,0.00,0.00
2016-06-10 00:40:00,1,43696,0,0.00,0,2,1,2,32061,50000,5899,42863,0,0,0,0,0.00,0.00,0.00,0.00
2016-06-10 00:50:00,1,44901,0,0.00,0,2,1,2,33892,50000,5552,46484,0,0,0,0,0.00,0.00,0.00,0.00
2016-06-10 01:00:00,0,40891,0,0.00,0,0,0,0,29504,50000,6635,41032,0,0,0,0,0.00,0.00,0.00,0.00
2016-06-10 01:10:00,0,46893,0,0.00,0,0,0,0,32578,50000,5239,49550,0,0,0,0,0.00,0.00,0.00,0.00
2016-06-10 01:20:00,0,49185,0,0.00,0,0,0,0,46776,50000,1174,49840,0,0,0,0,0.00,0.00,0.00,0.00
2016-06-10 01:30:00,0,48334,0,0.00,0,0,0,0,41744,50000,2905,49956,0,0,0,0,0.00,0.00,0.00,0.00
2016-06-10 01:40:00,0,46794,0,0.00,0,2,1,0,35314,50000,4589,49251,0,0,0,0,0.00,0.00,0.00,0.00
2016-06-10 01:50:00,0,44161,0,0.00,0,2,1,0,34169,50000,6054,46755,0,0,0,0,0.00,0.00,0.00,0.00
2016-06-10 02:00:00,0,43827,0,0.00,0,2,1,0,33086,50000,4892,44730,0,0,0,0,0.00,0.00,0.00,0.00
2016-06-10 02:10:00,0,44351,0,0.00,0,0,0,0,36416,50000,5318,45008,0,0,0,0,0.00,0.00,0.00,0.00
2016-06-10 02:20:00,1,41941,0,0.00,0,2,1,0,23530,50000,8434,42833,0,0,0,0,0.00,0.00,0.00,0.00
2016-06-10 02:30:00,1,39159,0,0.00,0,2,1,1,28031,50000,6100,38295,0,0,0,0,0.00,0.00,0.00,0.00
2016-06-10 02:40:00,1,42776,0,0.00,0,2,1,1,35880,48251,3323,43878,0,0,0,0,0.00,0.00,0.00,0.00
2016-06-10 02:50:00,1,43844,0,0.00,0,2,1,1,33812,50000,5782,44812,0,0,0,0,0.00,0.00,0.00,0.00
2016-06-10 03:00:00,2,35975,0,0.00,2,2,0,2,28013,42403,4698,37231,0,0,0,0,0.00,0.00,0.00,0.00
2016-06-10 03:10:00,0,40661,0,0.00,0,0,0,0,35639,44469,2600,40448,0,0,0,0,0.00,0.00,0.00,0.00
2016-06-10 03:20:00,0,45047,0,0.00,0,2,1,0,28677,50000,6492,46837,0,0,0,0,0.00,0.00,0.00,0.00
2016-06-10 03:30:00,1,42248,0,0.00,0,2,1,1,30342,50000,7016,45068,0,0,0,0,0.00,0.00,0.00,0.00
2016-06-10 03:40:00,0,41647,0,0.00,0,2,1,0,24193,50000,7815,43373,0,0,0,0,0.00,0.00,0.00,0.00
2016-06-10 03:50:00,0,45513,0,0.00,0,0,0,0,39601,50000,3969,46546,0,0,0,0,0.00,0.00,0.00,0.00
2016-06-10 04:00:00,0,45882,0,0.00,0,0,0,0,36464,50000,4174,46184,0,0,0,0,0.00,0.00,0.00,0.00
2016-06-10 04:10:00,1,47397,0,0.00,0,2,1,0,40193,50000,3624,49854,0,0,0,0,0.00,0.00,0.00,0.00
2016-06-10 04:20:00,0,46147,0,0.00,0,0,0,0,38173,50000,3790,46655,0,0,0,0,0.00,0.00,0.00,0.00
2016-06-10 04:30:00,0,50000,0,0.00,0,2,1,0,50000,50000,0,50000,0,0,0,0,0.00,0.00,0.00,0.00
2016-06-10 04:40:00,0,48820,0,0.00,0,0,0,0,42643,50000,2398,50000,0,0,0,0,0.00,0.00,0.00,0.00
2016-06-10 04:50:00,0,49851,0,0.00,0,0,0,0,48918,50000,334,50000,0,0,0,0,0.00,0.00,0.00,0.00
2016-06-10 05:00:00,0,47795,0,0.00,0,0,0,0,41481,50000,2892,49806,0,0,0,0,0.00,0.00,0.00,0.00
2016-06-10 05:10:00,0,48582,0,0.00,0,0,0,0,44977,50000,1883,49565,0,0,0,0,0.00,0.00,0.00,0.00
2016-06-10 05:20:00,0,43139,0,0.00,0,0,0,0,34563,50000,5575,45216,0,0,0,0,0.00,0.00,0.00,0.00
2016-06-10 05:30:00,0,49558,0,0.00,0,0,0,0,46964,50000,958,50000,0,0,0,0,0.00,0.00,0.00,0.00
2016-06-10 05:40:00,0,49499,0,0.00,0,0,0,0,47295,50000,860,50000,0,0,0,0,0.00,0.00,0.00,0.00
2016-06-10 05:50:00,0,48237,0,0.00,0,0,0,0,41033,50000,3305,50000,0,0,0,0,0.00,0.00,0.00,0.00
2016-06-10 06:00:00,0,48343,0,0.00,0,0,0,0,43844,50000,2362,50000,0,0,0,0,0.00,0.00,0.00,0.00
2016-06-10 06:10:00,0,49809,0,0.00,0,0,0,0,48671,50000,417,50000,0,0,0,0,0.00,0.00,0.00,0.00
2016-06-10 06:20:00,0,46426,0,0.00,0,0,0,0,36432,50000,4520,48953,0,0,0,0,0.00,0.00,0.00,0.00
2016-06-10 06:30:00,0,48845,0,0.00,0,0,0,0,45053,50000,1937,50000,0,0,0,0,0.00,0.00,0.00,0.00
2016-06-10 06:40:00,0,47790,0,0.00,0,0,0,0,37811,50000,4134,50000,0,0,0,0,0.00,0.00,0.00,0.00
2016-06-10 06:50:00,0,49920,0,0.00,0,0,0,0,49196,50000,241,50000,0,0,0,0,0.00,0.00,0.00,0.00
2016-06-10 07:00:00,0,49022,0,0.00,0,0,0,0,46357,50000,1503,50000,0,0,0,0,0.00,0.00,0.00,0.00
2016-06-10 07:10:00,0,48578,0,0.00,0,0,0,0,42386,50000,2503,50000,0,0,0,0,0.00,0.00,0.00,0.00
2016-06-10 07:20:00,0,48916,0,0.00,0,0,0,0,45212,50000,1775,50000,0,0,0,0,0.00,0.00,0.00,0.00
2016-06-10 07:30:00,0,47897,0,0.00,0,0,0,0,43919,50000,2379,48865,0,0,0,0,0.00,0.00,0.00,0.00
2016-06-10 07:40:00,0,47250,0,0.00,0,0,0,0,37170,50000,4112,49322,0,0,0,0,0.00,0.00,0.00,0.00
2016-06-10 07:50:00,0,48614,0,0.00,0,0,0,0,45613,50000,1832,49917,0,0,0,0,0.00,0.00,0.00,0.00
2016-06-10 08:00:00,0,49546,0,0.00,0,0,0,0,47541,50000,847,50000,0,0,0,0,0.00,0.00,0.00,0.00
2016-06-10 08:10:00,0,49297,0,0.00,0,0,0,0,44460,50000,1671,50000,0,0,0,0,0.00,0.00,0.00,0.00
2016-06-10 08:20:00,0,48528,0,0.00,0,0,0,0,43032,50000,2388,50000,0,0,0,0,0.00,0.00,0.00,0.00
2016-06-10 08:30:00,0,49964,0,0.00,0,0,0,0,49644,50000,107,50000,0,0,0,0,0.00,0.00,0.00,0.00
2016-06-10 08:40:00,0,48232,0,0.00,0,0,0,0,42916,50000,2591,49211,0,0,0,0,0.00,0.00,0.00,0.00
2016-06-10 08:50:00,0,49710,0,0.00,0,0,0,0,47096,50000,871,50000,0,0,0,0,0.00,0.00,0.00,0.00
2016-06-10 09:00:00,0,49985,0,0.00,0,0,0,0,49851,50000,45,50000,0,0,0,0,0.00,0.00,0.00,0.00
2016-06-10 09:10:00,0,49515,0,0.00,0,0,0,0,46853,50000,982,50000,0,0,0,0,0.00,0.00,0.00,0.00
2016-06-10 09:20:00,0,49548,0,0.00,0,0,0,0,45477,50000,1357,50000,0,0,0,0,0.00,0.00,0.00,0.00
2016-06-10 09:30:00,0,49895,0,0.00,0,0,0,0,48947,50000,316,50000,0,0,0,0,0.00,0.00,0.00,0.00
2016-06-10 09:40:00,0,49900,0,0.00,0,0,0,0,49004,50000,299,50000,0,0,0,0,0.00,0.00,0.00,0.00
2016-06-10 09:50:00,0,49859,0,0.00,0,0,0,0,48734,50000,377,50000,0,0,0,0,0.00,0.00,0.00,0.00
2016-06-10 10:00:00,0,50000,0,0.00,0,0,0,0,50000,50000,0,50000,0,0,0,0,0.00,0.00,0.00,0.00
2016-06-10 10:10:00,0,49727,0,0.00,0,0,0,0,47268,50000,820,50000,0,0,0,0,0.00,0.00,0.00,0.00
2016-06-10 10:20:00,0,48309,0,0.00,0,0,0,0,44120,50000,2133,49326,0,0,0,0,0.00,0.00,0.00,0.00
2016-06-10 10:30:00,0,49999,0,0.00,0,0,0,0,49989,50000,3,50000,0,0,0,0,0.00,0.00,0.00,0.00
2016-06-10 10:40:00,0,49490,0,0.00,0,0,0,0,45184,50000,1438,50000,0,0,0,0,0.00,0.00,0.00,0.00
2016-06-10 10:50:00,0,50000,0,0.00,0,0,0,0,50000,50000,0,50000,0,0,0,0,0.00,0.00,0.00,0.00
2016-06-10 11:00:00,0,49927,0,0.00,0,0,0,0,49268,50000,220,50000,0,0,0,0,0.00,0.00,0.00,0.00
2016-06-10 11:10:00,0,50000,0,0.00,0,0,0,0,50000,50000,0,50000,0,0,0,0,0.00,0.00,0.00,0.00
2016-06-10 11:20:00,2,48994,0,0.00,0,2,1,2,44214,50000,1846,50000,0,0,0,0,0.00,0.00,0.00,0.00
2016-06-10 11:30:00,0,49485,0,0.00,0,2,1,0,47584,50000,839,50000,0,0,0,0,0.00,0.00,0.00,0.00
2016-06-10 11:40:00,1,47432,0,0.00,0,2,1,1,40965,50000,2720,48130,0,0,0,0,0.00,0.00,0.00,0.00
2016-06-10 11:50:00,0,48340,0,0.00,0,0,0,0,39312,50000,3183,50000,0,0,0,0,0.00,0.00,0.00,0.00
2016-06-10 12:00:00,0,49422,0,0.00,0,0,0,0,44822,50000,1544,50000,0,0,0,0,0.00,0.00,0.00,0.00
2016-06-10 12:10:00,0,49847,0,0.00,0,0,0,0,48469,50000,459,50000,0,0,0,0,0.00,0.00,0.00,0.00
2016-06-10 12:20:00,0,50000,0,0.00,0,0,0,0,50000,50000,0,50000,0,0,0,0,0.00,0.00,0.00,0.00
2016-06-10 12:30:00,0,50000,0,0.00,0,0,0,0,50000,50000,0,50000,0,0,0,0,0.00,0.00,0.00,0.00
2016-06-10 12:40:00,0,49931,0,0.00,0,0,0,0,49311,50000,207,50000,0,0,0,0,0.00,0.00,0.00,0.00
2016-06-10 12:50:00,0,50000,0,0.00,0,0,0,0,50000,50000,0,50000,0,0,0,0,0.00,0.00,0.00,0.00
2016-06-10 13:00:00,0,50000,0,0.00,0,0,0,0,50000,50000,0,50000,0,0,0,0,0.00,0.00,0.00,0.00
2016-06-10 13:10:00,0,50000,0,0.00,0,0,0,0,50000,50000,0,50000,0,0,0,0,0.00,0.00,0.00,0.00
2016-06-10 13:20:00,0,50000,0,0.00,0,0,0,0,50000,50000,0,50000,0,0,0,0,0.00,0.00,0.00,0.00
2016-06-10 13:30:00,0,50000,0,0.00,0,0,0,0,50000,50000,0,50000,0,0,0,0,0.00,0.00,0.00,0.00
2016-06-10 13:40:00,0,49750,0,0.00,0,0,0,0,47499,50000,750,50000,0,0,0,0,0.00,0.00,0.00,0.00
2016-06-10 13:50:00,0,50000,0,0.00,0,0,0,0,50000,50000,0,50000,0,0,0,0,0.00,0.00,0.00,0.00
2016-06-10 14:00:00,0,48681,0,0.00,0,0,0,0,43394,50000,2639,50000,0,0,0,0,0.00,0.00,0.00,0.00
2016-06-10 14:10:00,0,50000,0,0.00,0,0,0,0,50000,50000,0,50000,0,0,0,0,0.00,0.00,0.00,0.00
2016-06-10 14:20:00,0,50000,0,0.00,0,0,0,0,50000,50000,0,50000,0,0,0,0,0.00,0.00,0.00,0.00
2016-06-10 14:30:00,0,50000,0,0.00,0,0,0,0,50000,50000,0,50000,0,0,0,0,0.00,0.00,0.00,0.00
2016-06-10 14:40:00,0,50000,0,0.00,0,0,0,0,50000,50000,0,50000,0,0,0,0,0.00,0.00,0.00,0.00
2016-06-10 14:50:00,0,50000,0,0.00,0,0,0,0,50000,50000,0,50000,0,0,0,0,0.00,0.00,0.00,0.00
2016-06-10 15:00:00,1,50000,0,0.00,0,2,1,0,50000,50000,0,50000,0,0,0,0,0.00,0.00,0.00,0.00
2016-06-10 15:10:00,0,49932,0,0.00,0,2,1,0,49325,50000,202,50000,0,0,0,0,0.00,0.00,0.00,0.00
2016-06-10 15:20:00,0,50000,0,0.00,0,0,0,0,50000,50000,0,50000,0,0,0,0,0.00,0.00,0.00,0.00
2016-06-10 15:30:00,0,50000,0,0.00,0,0,0,0,50000,50000,0,50000,0,0,0,0,0.00,0.00,0.00,0.00
2016-06-10 15:40:00,0,49937,0,0.00,0,0,0,0,49366,50000,190,50000,0,0,0,0,0.00,0.00,0.00,0.00
2016-06-10 15:50:00,0,50000,0,0.00,0,0,0,0,50000,50000,0,50000,0,0,0,0,0.00,0.00,0.00,0.00
2016-06-10 16:00:00,0,50000,0,0.00,0,0,0,0,50000,50000,0,50000,0,0,0,0,0.00,0.00,0.00,0.00
2016-06-10 16:10:00,0,50000,0,0.00,0,0,0,0,50000,50000,0,50000,0,0,0,0,0.00,0.00,0.00,0.00
2016-06-10 16:20:00,0,50000,0,0.00,0,0,0,0,50000,50000,0,50000,0,0,0,0,0.00,0.00,0.00,0.00
2016-06-10 16:30:00,0,50000,0,0.00,0,0,0,0,50000,50000,0,50000,0,0,0,0,0.00,0.00,0.00,0.00
2016-06-10 16:40:00,0,49883,0,0.00,0,0,0,0,48832,50000,350,50000,0,0,0,0,0.00,0.00,0.00,0.00
2016-06-10 16:50:00,0,50000,0,0.00,0,0,0,0,50000,50000,0,50000,0,0,0,0,0.00,0.00,0.00,0.00
2016-06-10 17:00:00,0,49950,0,0.00,0,0,0,0,49500,50000,150,50000,0,0,0,0,0.00,0.00,0.00,0.00
2016-06-10 17:10:00,0,50000,0,0.00,0,0,0,0,50000,50000,0,50000,0,0,0,0,0.00,0.00,0.00,0.00
2016-06-10 17:20:00,0,50000,0,0.00,0,0,0,0,50000,50000,0,50000,0,0,0,0,0.00,0.00,0.00,0.00
2016-06-10 17:30:00,0,50000,0,0.00,0,0,0,0,50000,50000,0,50000,0,0,0,0,0.00,0.00,0.00,0.00
2016-06-10 17:40:00,0,50000,0,0.00,0,0,0,0,50000,50000,0,50000,0,0,0,0,0.00,0.00,0.00,0.00
2016-06-10 17:50:00,0,49987,0,0.00,0,0,0,0,49870,50000,39,50000,0,0,0,0,0.00,0.00,0.00,0.00
2016-06-10 18:00:00,0,49893,0,0.00,0,0,0,0,48926,50000,322,50000,0,0,0,0,0.00,0.00,0.00,0.00
2016-06-10 18:10:00,0,49974,0,0.00,0,0,0,0,49744,50000,77,50000,0,0,0,0,0.00,0.00,0.00,0.00
2016-06-10 18:20:00,0,48829,0,0.00,0,0,0,0,43474,50000,2266,50000,0,0,0,0,0.00,0.00,0.00,0.00
2016-06-10 18:30:00,2,50000,0,0.00,0,2,1,2,50000,50000,0,50000,0,0,0,0,0.00,0.00,0.00,0.00
2016-06-10 18:40:00,2,50000,0,0.00,0,2,1,2,50000,50000,0,50000,0,0,0,0,0.00,0.00,0.00,0.00
2016-06-10 18:50:00,2,49980,0,0.00,0,2,1,2,49798,50000,61,50000,0,0,0,0,0.00,0.00,0.00,0.00
2016-06-10 19:00:00,0,49992,0,0.00,0,0,0,0,49925,50000,22,50000,0,0,0,0,0.00,0.00,0.00,0.00
2016-06-10 19:10:00,0,49051,0,0.00,0,0,0,0,45906,50000,1466,50000,0,0,0,0,0.00,0.00,0.00,0.00
2016-06-10 19:20:00,0,50000,0,0.00,0,0,0,0,50000,50000,0,50000,0,0,0,0,0.00,0.00,0.00,0.00
2016-06-10 19:30:00,0,50000,0,0.00,0,0,0,0,50000,50000,0,50000,0,0,0,0,0.00,0.00,0.00,0.00
2016-06-10 19:40:00,0,49915,0,0.00,0,0,0,0,49208,50000,236,50000,0,0,0,0,0.00,0.00,0.00,0.00
2016-06-10 19:50:00,0,50000,0,0.00,0,0,0,0,50000,50000,0,50000,0,0,0,0,0.00,0.00,0.00,0.00
2016-06-10 20:00:00,0,48357,0,0.00,0,0,0,0,41675,50000,2695,50000,0,0,0,0,0.00,0.00,0.00,0.00
2016-06-10 20:10:00,0,49660,0,0.00,0,0,0,0,47520,50000,737,50000,0,0,0,0,0.00,0.00,0.00,0.00
2016-06-10 20:20:00,0,48926,0,0.00,0,0,0,0,44191,50000,1847,50000,0,0,0,0,0.00,0.00,0.00,0.00
2016-06-10 20:30:00,0,49902,0,0.00,0,0,0,0,49018,50000,295,50000,0,0,0,0,0.00,0.00,0.00,0.00
2016-06-10 20:40:00,0,49484,0,0.00,0,0,0,0,44868,50000,1539,50000,0,0,0,0,0.00,0.00,0.00,0.00
2016-06-10 20:50:00,0,47819,0,0.00,0,0,0,0,42020,50000,3057,49772,0,0,0,0,0.00,0.00,0.00,0.00
2016-06-10 21:00:00,0,49772,0,0.00,0,0,0,0,47720,50000,684,50000,0,0,0,0,0.00,0.00,0.00,0.00
2016-06-10 21:10:00,0,48558,0,0.00,0,0,0,0,44882,50000,1979,49793,0,0,0,0,0.00,0.00,0.00,0.00
2016-06-10 21:20:00,0,46707,0,0.00,0,0,0,0,35354,50000,5018,49498,0,0,0,0,0.00,0.00,0.00,0.00
2016-06-10 21:30:00,0,46508,0,0.00,0,0,0,0,38836,50000,3627,47291,0,0,0,0,0.00,0.00,0.00,0.00
2016-06-10 21:40:00,0,48517,0,0.00,0,0,0,0,43884,50000,1936,49662,0,0,0,0,0.00,0.00,0.00,0.00
2016-06-10 21:50:00,0,48354,0,0.00,0,0,0,0,42381,50000,2333,49074,0,0,0,0,0.00,0.00,0.00,0.00
2016-06-10 22:00:00,0,46620,0,0.00,0,0,0,0,43192,50000,2345,46402,0,0,0,0,0.00,0.00,0.00,0.00
2016-06-10 22:10:00,0,48190,0,0.00,0,0,0,0,40866,50000,2867,50000,0,0,0,0,0.00,0.00,0.00,0.00
2016-06-10 22:20:00,0,48897,0,0.00,0,0,0,0,45958,50000,1437,50000,0,0,0,0,0.00,0.00,0.00,0.00
2016-06-10 22:30:00,0,49507,0,0.00,0,0,0,0,47947,50000,798,50000,0,0,0,0,0.00,0.00,0.00,0.00
2016-06-10 22:40:00,0,48986,0,0.00,0,0,0,0,46921,50000,1249,49858,0,0,0,0,0.00,0.00,0.00,0.00
2016-06-10 22:50:00,0,48843,0,0.00,0,0,0,0,45063,50000,1792,50000,0,0,0,0,0.00,0.00,0.00,0.00
2016-06-10 23:00:00,0,44268,0,0.00,0,0,0,0,34737,50000,5234,45499,0,0,0,0,0.00,0.00,0.00,0.00
2016-06-10 23:10:00,1,44833,0,0.00,0,2,1,0,27417,50000,7369,48716,0,0,0,0,0.00,0.00,0.00,0.00
2016-06-10 23:20:00,0,33860,0,0.00,0,0,0,0,27559,49062,6767,32049,0,0,0,0,0.00,0.00,0.00,0.00
2016-06-10 23:30:00,0,38305,0,0.00,0,0,0,0,20040,50000,9208,38937,0,0,0,0,0.00,0.00,0.00,0.00
2016-06-10 23:40:00,0,36622,0,0.00,0,0,0,0,27996,50000,8705,31353,0,0,0,0,0.00,0.00,0.00,0.00
2016-06-10 23:50:00,0,38633,0,0.00,0,0,0,0,21016,48157,8439,42656,0,0,0,0,0.00,0.00,0.00,0.00
